GFSSW_925_rhum_342.txt.gz
RH
61 60 58 58 58 55 53 50 48 44 20 9 7 7 9 9 10 12 15 15 15 22 25 29 30 30 28 34 27 26 56 76 60 59 50 47 50 39 37 42 39 38 56 59 62
60 59 57 52 53 54 52 48 46 44 24 10 7 6 9 9 11 15 12 14 15 24 26 22 21 17 22 25 25 34 58 63 51 49 53 46 47 44 45 50 61 61 57 57 58
54 55 55 54 48 50 50 48 44 42 25 11 7 6 9 10 18 14 10 13 14 16 15 14 14 15 19 26 31 31 47 49 38 45 42 46 47 41 49 50 56 66 59 54 54
44 46 49 50 48 44 48 46 43 40 30 10 8 7 9 14 19 12 12 14 13 13 12 13 16 19 22 29 33 32 34 35 41 44 45 51 44 45 45 45 51 51 50 51 52
32 29 33 41 42 41 41 45 41 38 34 10 9 8 12 22 18 9 11 12 12 14 13 14 16 19 24 33 27 36 34 35 40 42 44 41 41 41 40 44 49 48 47 50 50
28 25 17 19 30 36 35 43 39 37 33 10 11 9 23 14 9 11 12 12 14 15 14 16 16 17 23 30 28 30 36 35 36 38 38 41 40 37 40 49 50 48 49 49 48
31 23 16 12 13 25 31 41 36 34 30 12 11 12 25 19 10 12 13 14 13 12 15 15 14 17 19 29 26 36 40 36 34 36 38 38 41 46 40 46 49 48 48 50 48
31 25 14 10 8 14 28 40 35 29 28 12 11 15 18 6 9 10 10 17 17 14 14 14 14 24 26 27 30 31 41 51 38 38 35 39 57 42 38 46 50 48 47 48 51
27 21 14 8 7 14 40 36 31 26 28 12 12 22 20 12 12 10 11 14 14 17 20 19 19 24 28 40 47 43 50 48 42 40 40 43 48 44 37 43 48 48 46 47 50
31 18 12 7 8 30 36 28 27 24 20 16 17 18 14 13 12 14 17 16 22 23 23 22 32 32 36 45 56 51 46 36 47 43 43 50 47 42 40 40 45 47 47 48 46
31 22 10 7 8 44 34 28 43 38 32 20 22 17 12 10 11 16 19 20 22 26 32 28 37 41 34 35 36 37 37 41 34 40 43 49 48 47 40 42 47 49 48 48 50
30 19 10 8 13 52 46 43 44 48 57 38 32 28 18 11 14 15 16 24 28 36 32 36 41 33 30 27 32 33 33 21 29 38 39 43 46 48 41 42 43 45 46 48 51
31 20 11 15 37 70 73 84 70 45 65 48 33 18 14 10 13 16 20 23 30 37 37 40 32 25 25 23 20 21 20 19 26 35 34 30 33 26 35 39 39 41 41 43 48
30 24 15 23 62 71 75 76 73 61 76 46 31 16 12 11 13 9 18 23 28 36 34 34 26 25 24 23 21 22 18 18 20 28 33 23 32 21 20 38 38 43 46 46 49
30 24 21 38 40 71 66 72 68 64 51 24 20 10 11 12 12 13 14 20 31 27 22 29 19 19 21 23 20 22 18 17 18 22 21 20 25 21 26 45 42 41 42 44 44
28 21 26 29 22 42 63 64 68 69 67 40 11 10 13 12 10 14 16 17 23 24 22 23 16 17 22 20 21 19 21 29 28 30 33 25 26 25 26 26 30 32 32 31 35
27 15 23 43 36 40 63 76 74 78 39 31 14 12 13 14 12 17 19 23 32 34 34 27 22 17 18 23 19 24 38 58 39 52 43 27 25 24 28 30 32 34 34 36 39
25 16 21 33 47 52 80 86 91 55 61 34 20 15 15 14 14 18 24 26 27 30 41 36 37 23 18 27 27 28 35 62 42 54 46 29 26 34 29 32 32 34 41 45 48
27 32 39 54 72 77 92 100 93 73 48 37 27 15 18 16 15 16 25 29 28 29 34 46 37 20 18 20 23 26 36 35 44 50 46 38 27 30 29 31 34 38 46 54 52
56 69 60 70 74 82 92 94 88 63 45 38 24 23 20 18 20 22 23 23 24 27 26 27 31 19 17 17 21 24 29 44 70 53 49 44 37 42 37 35 38 44 55 57 55
66 82 78 73 72 92 97 84 68 48 46 51 30 30 28 28 24 25 22 16 20 22 29 27 39 27 20 23 28 29 36 48 53 60 63 53 43 24 33 34 44 49 54 58 57
78 69 81 78 86 96 95 75 51 39 36 46 45 29 30 37 36 25 25 21 19 22 30 32 46 39 28 23 26 29 32 44 74 48 65 59 48 33 33 46 50 51 55 60 60
93 81 80 78 93 82 65 55 53 41 37 44 49 43 47 44 46 33 27 18 13 21 30 29 43 66 38 36 30 24 29 44 56 60 57 71 54 39 44 50 50 57 56 62 62
92 89 78 93 85 78 75 72 60 40 43 38 41 40 47 56 44 38 31 23 27 24 38 38 44 48 58 45 40 28 27 47 51 76 56 58 44 42 51 54 54 59 64 67 67
93 84 75 92 87 70 75 71 70 65 42 40 42 46 45 58 54 38 36 30 25 29 24 34 38 40 42 38 33 29 29 51 48 46 55 44 46 38 47 53 54 59 63 64 65
91 84 80 75 69 66 64 70 62 53 53 56 53 42 48 64 52 51 51 51 42 32 26 35 39 33 29 30 37 34 32 47 44 41 40 37 35 29 39 52 53 56 60 63 63
70 72 81 79 72 63 67 57 57 60 51 43 52 58 61 62 57 40 42 44 46 44 37 37 47 57 45 34 37 45 35 36 39 40 34 42 34 48 55 50 51 55 59 62 60

GFSSW_925_rhum_348.txt.gz
RH
36 31 36 38 48 47 44 42 42 42 40 34 10 7 8 10 11 14 15 15 16 17 23 24 28 32 36 37 35 42 56 64 60 69 58 58 58 48 46 60 50 60 72 68 82
22 22 22 25 37 43 42 40 38 40 39 36 14 7 8 10 15 16 13 14 15 22 26 29 27 20 22 26 33 41 59 50 51 53 54 61 55 49 53 60 65 77 77 83 90
16 14 13 13 20 34 38 37 36 36 38 35 23 8 8 11 16 12 11 12 14 24 26 23 16 16 20 22 34 46 51 46 43 49 50 58 54 49 59 60 60 75 91 89 95
13 10 8 8 8 15 28 34 34 33 37 35 29 8 8 16 12 12 11 11 13 22 18 14 17 19 22 29 33 38 38 47 43 52 54 59 53 52 48 47 45 69 80 87 91
14 11 8 6 5 6 14 27 32 31 35 34 30 8 12 18 15 10 12 13 14 17 15 15 17 20 22 30 32 37 37 41 51 53 54 50 51 48 51 51 61 69 75 84 87
18 10 7 5 4 4 6 16 26 30 33 32 29 9 24 13 10 12 14 15 14 15 16 15 17 19 20 25 33 35 41 48 47 50 50 50 46 45 48 66 68 69 75 78 79
22 14 8 5 4 4 5 8 22 29 30 29 24 10 21 14 14 13 14 13 13 15 18 16 16 17 20 30 34 39 43 40 44 47 50 44 49 51 56 65 70 69 69 72 71
19 12 8 5 4 6 19 27 28 26 27 28 15 14 12 7 10 14 12 13 15 15 16 15 16 20 22 31 37 42 47 54 42 47 42 47 67 49 67 67 73 68 66 67 68
20 11 7 5 7 31 36 33 28 28 29 28 13 16 9 10 13 11 11 13 15 18 20 20 21 30 33 42 46 48 52 55 48 48 46 49 57 45 71 66 70 67 67 66 67
20 12 8 6 14 55 38 30 30 29 29 19 22 19 12 12 12 15 14 14 17 25 25 26 36 37 44 44 54 47 50 48 48 45 50 56 56 48 71 68 66 68 69 67 64
23 11 8 6 40 56 38 32 56 39 43 23 20 19 19 19 14 14 20 17 27 29 38 33 38 41 34 41 35 35 44 44 40 43 52 57 50 52 61 68 71 72 68 64 63
25 12 8 7 66 60 64 94 85 92 77 49 45 40 30 24 20 13 17 28 31 39 37 41 46 36 32 33 36 34 45 48 40 37 50 59 55 50 55 60 61 62 61 59 63
25 14 8 7 74 67 72 69 70 81 74 47 39 33 24 22 19 16 21 29 35 41 41 45 38 32 31 31 30 22 42 35 36 46 43 43 43 50 48 48 50 52 53 52 58
28 16 9 7 56 56 78 61 76 83 57 33 42 31 17 17 15 12 21 26 31 44 46 41 36 35 31 33 30 26 19 19 32 47 51 40 59 24 31 46 49 45 55 53 56
24 16 13 11 24 38 58 54 81 57 31 13 33 18 14 14 11 11 18 25 36 38 40 45 25 27 34 31 23 26 19 19 19 35 24 25 34 24 27 27 37 46 50 52 51
24 14 12 21 23 25 30 61 54 55 28 34 24 14 16 13 12 18 18 25 29 30 27 40 22 20 22 22 22 22 24 35 39 35 33 25 29 24 24 27 34 50 50 51 56
20 13 13 15 24 30 40 59 66 65 28 35 30 17 17 18 13 18 24 30 38 42 40 30 26 21 21 24 23 29 40 58 46 54 49 29 31 28 34 41 38 44 43 44 53
16 14 21 20 48 41 78 78 72 47 51 45 37 30 17 16 16 15 24 34 29 36 50 44 43 27 21 26 30 31 39 63 46 49 44 36 40 31 38 45 50 53 54 51 47
21 28 38 65 75 83 84 100 81 67 56 62 39 24 17 15 15 21 23 27 35 32 35 46 41 26 23 27 26 32 42 38 51 56 57 46 33 35 37 42 51 54 55 59 58
57 60 57 89 91 76 90 79 84 67 59 56 41 31 26 27 18 19 24 26 25 35 27 33 33 24 20 22 27 32 37 51 73 53 54 49 42 40 41 44 51 53 58 62 67
71 61 86 87 85 76 74 71 75 61 53 56 59 58 34 50 43 25 20 19 26 30 27 38 39 30 22 28 34 39 43 60 55 61 63 50 44 37 35 45 54 57 59 68 85
79 34 79 80 76 91 71 77 60 48 37 39 52 58 47 52 52 37 28 24 27 32 35 33 45 43 30 26 27 30 40 52 71 49 63 56 46 50 48 46 53 63 64 82 89
87 85 65 74 90 94 79 62 52 50 45 36 53 46 43 48 52 50 39 30 30 29 37 38 46 59 38 37 32 30 36 55 61 65 69 70 51 52 58 61 62 67 76 83 83
88 83 82 90 87 77 76 66 54 53 45 33 42 36 34 53 52 53 53 40 37 31 53 32 47 43 42 37 43 30 38 54 49 73 61 63 42 36 59 67 69 75 84 87 85
94 86 80 91 88 73 74 74 72 64 53 50 47 58 56 48 55 60 48 51 40 53 35 38 40 46 42 33 37 33 34 57 48 46 47 36 48 38 43 60 66 78 87 87 87
93 86 81 80 71 68 68 74 72 72 57 56 69 73 65 67 72 76 67 48 50 54 53 50 35 40 37 42 40 33 34 51 47 50 47 41 48 40 52 70 75 77 83 85 84
85 86 77 81 73 72 73 61 72 70 60 69 74 78 76 87 93 79 70 67 60 56 62 57 58 52 40 39 43 56 44 43 47 45 43 50 41 57 61 64 68 77 77 82 76

GFSSW_925_rhum_351.txt.gz
RH
16 13 14 16 21 37 41 39 38 36 38 37 28 9 8 10 12 14 16 15 16 16 20 24 28 34 35 33 33 37 34 43 47 55 48 50 50 45 46 56 51 52 57 59 82
15 10 8 9 11 24 35 36 35 34 35 35 32 10 8 10 16 17 14 15 18 19 24 29 32 29 19 25 34 33 38 39 40 43 44 51 46 45 48 52 51 56 71 79 83
19 11 7 5 6 11 22 30 32 32 32 33 31 12 8 12 16 12 12 14 18 24 27 26 18 16 19 20 27 37 37 41 39 44 43 51 47 43 47 51 43 47 76 78 79
14 11 8 6 4 5 9 20 28 30 30 32 30 15 8 18 16 11 11 12 16 23 21 15 17 19 22 29 33 36 36 40 41 47 49 51 43 45 42 40 36 44 68 76 76
13 10 7 6 4 4 4 8 20 26 29 30 30 15 11 16 13 11 12 14 15 25 18 15 17 19 20 23 33 35 36 42 46 46 46 44 44 43 44 42 47 62 72 70 74
12 10 7 6 4 4 4 5 10 22 28 28 28 14 20 13 11 12 14 15 15 18 16 15 17 18 20 24 30 34 40 44 44 46 46 46 46 42 40 52 60 67 70 69 74
12 10 8 6 4 5 9 23 23 23 24 26 27 10 18 11 13 16 16 16 15 16 17 16 16 18 21 32 34 37 40 38 42 44 46 40 48 47 44 52 60 64 68 68 71
14 10 9 7 6 12 36 36 29 22 21 27 19 12 12 8 11 12 14 16 14 15 16 17 16 19 24 32 34 37 39 42 37 43 42 43 45 42 48 52 56 62 65 68 68
15 10 8 7 11 54 41 39 31 29 30 26 14 12 10 10 13 11 12 13 18 19 19 20 21 28 32 36 38 38 40 43 38 40 42 46 45 39 52 52 56 60 60 61 63
14 10 8 6 37 60 45 33 32 29 27 19 22 17 11 13 15 15 16 15 19 25 24 27 30 32 37 35 40 39 40 43 39 37 45 47 47 40 55 54 52 57 58 58 58
15 10 7 6 62 58 41 37 46 36 38 19 19 16 17 19 17 13 21 19 28 28 32 32 33 38 33 35 34 32 35 36 30 35 44 44 42 38 45 58 57 55 57 56 55
15 11 8 6 72 62 61 85 85 94 57 48 48 42 33 26 20 14 22 27 35 35 36 36 39 33 31 31 33 35 35 32 32 36 41 43 37 39 45 49 49 51 54 54 52
16 11 8 6 71 67 65 64 66 90 68 40 38 34 25 25 18 17 24 33 37 42 39 40 35 36 35 32 33 26 33 35 33 46 42 44 39 37 43 42 44 48 46 48 52
20 13 9 6 42 45 75 46 86 85 40 20 35 25 21 20 16 14 22 29 35 41 40 37 35 36 36 35 31 35 23 19 25 36 31 39 34 25 21 36 45 42 49 48 48
20 15 11 9 20 32 50 42 88 60 44 12 33 20 16 14 11 12 16 27 37 40 40 42 32 30 34 32 28 28 19 19 21 36 26 25 37 27 21 18 19 32 41 46 47
18 14 12 20 16 24 24 63 58 51 34 34 27 18 18 14 12 20 22 28 30 33 30 38 26 22 26 26 24 25 25 30 32 28 29 23 25 21 18 20 26 30 40 43 47
16 12 14 16 18 24 36 56 58 63 28 36 31 19 20 20 15 21 26 31 35 42 42 32 28 23 22 24 24 27 33 40 38 41 38 28 25 22 25 34 38 39 45 45 50
16 15 21 24 48 47 75 70 68 40 45 42 44 35 20 19 18 19 30 28 32 36 44 40 39 28 23 25 26 30 33 52 44 38 29 34 30 26 31 40 44 44 45 44 44
18 31 41 76 77 87 76 99 69 57 55 61 43 31 20 16 17 21 24 32 31 32 31 45 39 28 25 26 23 33 37 35 46 54 49 32 29 25 34 38 42 44 47 51 50
44 60 69 91 94 76 83 70 74 64 60 55 45 35 26 28 20 24 29 24 22 34 31 35 32 26 23 24 30 31 32 44 55 69 53 38 38 26 31 34 40 42 48 56 60
68 62 89 90 81 62 67 58 62 59 61 55 59 58 40 49 42 24 23 21 25 33 30 36 39 30 24 28 32 38 41 49 45 48 42 37 29 32 28 31 37 40 50 58 65
76 43 77 85 61 78 55 56 63 49 36 40 51 58 49 52 49 39 28 25 30 34 32 35 46 42 27 27 27 34 38 40 61 50 52 42 32 33 38 37 39 42 52 65 68
74 71 65 70 77 78 77 64 56 47 46 39 50 46 40 49 53 52 45 34 29 30 36 36 44 46 32 32 32 32 39 52 55 52 51 49 33 42 44 41 42 46 56 68 72
79 85 80 83 81 67 73 62 51 51 45 37 37 38 32 46 52 54 52 44 42 40 49 40 44 43 38 31 40 40 43 56 51 56 46 42 29 34 40 43 48 52 61 67 71
85 83 80 89 83 83 71 70 71 53 52 51 56 62 60 45 54 55 51 50 42 57 41 42 44 45 39 30 32 29 32 47 46 35 36 26 33 24 29 40 45 52 67 72 74
90 81 76 75 70 70 70 75 68 66 60 61 66 67 66 68 76 75 71 58 54 54 51 49 41 47 40 35 34 31 31 39 37 42 33 36 32 27 40 44 57 59 65 68 70
90 91 69 80 72 72 74 64 68 65 73 63 68 68 69 87 79 74 74 69 68 68 63 54 59 54 44 40 46 54 39 35 39 39 34 39 28 39 49 51 51 55 61 63 67

GFSSW_925_rhum_354.txt.gz
RH
11 9 7 7 9 12 28 35 34 34 33 36 32 11 8 9 12 16 14 13 15 18 22 25 26 26 25 20 22 21 25 28 29 29 33 32 36 34 33 38 38 37 35 39 59
12 8 6 5 5 7 15 26 30 31 31 34 32 17 8 9 22 12 13 15 16 20 23 22 22 23 16 16 21 23 26 29 28 28 29 34 33 37 38 39 38 42 46 52 61
9 8 5 4 4 4 6 13 24 28 29 31 31 24 8 12 14 10 13 15 15 23 23 22 17 14 16 15 19 24 26 28 28 28 29 34 33 33 34 37 31 36 47 54 55
10 8 6 5 4 4 4 5 13 23 27 29 30 26 8 24 11 12 13 15 18 24 24 18 13 16 19 24 23 28 26 27 28 30 31 33 31 37 32 30 29 30 42 50 50
10 8 7 6 5 4 4 4 6 15 24 28 28 25 14 14 9 12 13 15 21 21 19 13 15 15 21 20 24 26 25 26 29 31 31 33 35 34 33 31 30 35 42 44 46
11 9 7 7 6 5 5 12 17 17 23 25 26 23 18 12 12 11 19 18 18 22 20 15 14 14 18 19 23 24 24 26 28 30 33 32 36 35 30 33 38 43 43 42 45
12 9 8 7 6 8 32 31 26 22 21 21 26 16 11 8 18 23 21 16 15 16 17 15 14 15 19 25 25 26 28 27 26 28 31 30 37 35 30 34 40 42 42 42 44
16 10 8 6 7 41 42 39 27 23 19 23 25 22 9 7 16 18 17 16 16 15 14 15 15 14 20 25 26 28 27 27 24 28 30 32 26 25 30 34 38 41 42 44 43
17 11 8 6 14 57 43 38 31 29 30 25 20 15 9 8 10 10 15 12 15 16 16 18 16 17 25 28 28 27 27 26 20 24 28 34 25 26 30 33 33 39 41 43 43
15 10 8 6 35 58 41 33 32 32 28 22 20 17 10 7 12 15 14 13 14 16 18 19 20 22 22 26 29 24 26 23 23 21 30 30 30 26 32 34 32 37 38 41 42
16 11 8 6 56 58 39 44 30 31 29 18 14 14 11 14 17 13 17 15 14 16 19 19 24 25 20 20 21 24 24 22 18 16 26 28 28 21 25 33 34 34 37 38 39
17 12 9 6 69 59 65 51 67 82 35 26 29 28 24 20 12 12 19 15 20 20 20 26 24 17 21 24 26 24 25 22 17 22 28 23 24 18 22 30 31 33 34 36 36
16 12 9 6 63 68 57 54 63 81 45 23 22 22 18 18 10 11 19 17 19 19 22 23 20 20 26 25 28 24 24 21 22 24 27 28 24 19 26 28 31 30 29 32 35
19 12 9 6 36 48 61 48 81 86 26 17 22 17 19 15 12 9 15 19 22 20 18 20 19 27 29 29 26 29 20 21 21 21 22 25 24 23 17 22 31 31 33 32 34
21 14 10 8 35 35 48 46 92 76 94 16 24 18 14 13 10 11 17 21 20 21 26 22 28 30 29 26 20 23 19 20 19 21 22 20 24 16 17 15 13 18 29 33 33
21 14 12 29 31 34 23 67 73 50 98 23 20 19 18 14 10 12 13 19 20 26 28 20 23 22 22 20 20 16 21 20 20 21 29 20 21 17 15 16 14 19 20 23 29
22 14 17 21 24 15 31 63 44 99 21 22 22 15 17 17 12 13 16 20 21 29 28 25 25 20 18 19 21 21 24 34 32 31 31 20 22 15 13 17 22 26 30 35 30
18 14 30 27 38 42 74 46 100 23 21 32 31 25 18 16 16 12 15 16 20 20 18 24 26 21 17 19 18 22 22 34 42 30 23 21 20 15 19 24 28 31 33 36 39
17 58 58 79 70 82 57 93 44 24 33 40 32 27 20 15 16 16 16 13 13 19 21 23 21 19 21 18 18 24 28 22 30 36 34 22 14 13 16 23 27 29 32 37 37
52 50 51 92 87 74 43 53 38 43 48 41 33 27 21 17 17 18 18 15 16 16 14 16 22 19 20 20 24 25 19 32 32 65 35 18 20 17 16 18 23 28 31 38 40
60 34 81 85 86 39 64 29 31 42 48 44 38 37 27 26 22 17 16 18 18 17 21 16 20 21 20 22 18 28 30 29 30 32 31 25 18 15 16 19 21 23 32 37 42
52 30 81 92 34 32 24 22 52 36 35 40 39 42 39 33 30 21 18 23 25 23 22 19 22 24 21 20 21 19 20 23 47 37 35 30 23 16 20 22 24 23 32 40 43
31 44 70 79 50 33 37 34 39 35 30 27 35 38 37 39 37 36 34 32 25 24 24 27 26 37 26 26 25 25 24 28 33 31 33 39 28 22 22 25 25 26 33 43 46
41 93 64 59 54 35 34 27 29 36 31 27 26 31 34 37 37 42 38 37 33 31 55 33 27 25 32 22 20 32 24 34 32 44 34 26 24 18 20 22 24 29 34 41 46
46 68 57 94 69 49 38 29 28 39 34 32 33 24 25 28 29 37 37 37 34 44 33 33 34 27 25 16 14 16 17 21 37 26 27 22 19 15 14 16 20 27 35 43 45
69 55 55 57 57 57 54 44 36 40 34 37 34 45 40 26 30 48 51 43 41 40 39 36 34 34 32 22 18 20 16 16 22 18 16 18 18 14 15 22 23 29 37 44 43
67 68 47 64 58 52 48 49 47 45 54 47 46 41 46 61 59 54 54 53 54 60 52 48 43 39 36 28 25 36 25 18 18 19 20 21 16 14 23 26 26 32 36 39 38